Location: Volkssternwarte_EN
(51.3230°N, 7.4010°E)
Time: 06:51:53
(UTC+01:00)

BlueWalker 3 - Pass Details

Date: 02 December 2022
Orbit: 499 x 517 km, 53.2° (Epoch: 28 January)

Event Time Altitude Azimuth Distance (km) Brightness Sun altitude
Rises 16:52:56 0° 250° (WSW) 2,631 7.8 -4.5°
Reaches altitude 10° 16:55:08 10° 251° (WSW) 1,743 6.4 -4.8°
Maximum altitude 16:59:05 89° 162° (SSE) 520 2.0 -5.3°
Drops below altitude 10° 17:02:55 11° 73° (ENE) 1,694 4.0 -5.8°
Enters shadow 17:03:37 - 73° (ENE) 1,971 4.3 -5.9°
